EW4336 Weather Reports


time (UTC)temp
F
wind
direction
speed
knots
gust
knots
rain 1hr
in
rain 24hr
in
rain mn
in
humidity
%
barometer
mb
20260504045519 42 238 0.0 0.0 0.00 0.00 0.00 85 1013.5
20260504045018 42 238 0.0 0.0 0.00 0.00 0.00 85 1013.5
20260504044517 42 245 0.0 0.0 0.00 0.00 0.00 85 1013.5
20260504044018 42 245 0.0 0.0 0.00 0.00 0.00 84 1013.5
20260504043518 42 245 0.0 0.0 0.00 0.00 0.00 85 1013.5
20260504043018 42 290 0.0 0.0 0.00 0.00 0.00 84 1013.5
20260504042517 42 331 0.0 0.0 0.00 0.00 0.00 84 1013.4
20260504042015 42 6 0.0 0.0 0.00 0.00 0.00 83 1013.3
20260504041513 42 4 0.0 0.0 0.00 0.00 0.00 84 1013.3
20260504040515 41 327 0.0 0.0 0.00 0.00 0.00 84 1013.3
20260504040011 41 327 0.0 0.0 0.00 0.00 0.00 83 1013.3
20260504035511 42 326 0.0 0.0 0.00 0.00 0.00 83 1013.3
20260504035008 42 326 0.0 0.0 0.00 0.00 0.00 82 1013.4
20260504034509 42 326 0.0 0.0 0.00 0.00 0.00 82 1013.3
20260504034004 42 326 0.0 0.0 0.00 0.00 0.00 81 1013.4
20260504033501 42 326 0.0 0.0 0.00 0.00 0.00 80 1013.2
20260504033003 42 326 0.0 0.0 0.00 0.00 0.00 79 1013.3
20260504032501 42 326 0.0 0.0 0.00 0.00 0.00 79 1013.2
20260504032000 43 326 0.0 0.0 0.00 0.00 0.00 79 1013.3
20260504031501 43 326 0.0 0.0 0.00 0.00 0.00 78 1013.3
20260504031002 43 326 0.0 0.0 0.00 0.00 0.00 78 1013.5
20260504030501 43 326 0.0 0.0 0.00 0.00 0.00 78 1013.3
20260504030001 43 326 0.0 0.0 0.00 0.00 0.00 76 1013.4
20260504025501 44 326 0.0 0.0 0.00 0.00 0.00 77 1013.5
20260504025000 44 326 0.0 0.0 0.00 0.00 0.00 77 1013.5
20260504023459 44 326 0.0 0.0 0.00 0.00 0.00 74 1013.6
20260504023000 45 326 0.0 0.0 0.00 0.00 0.00 74 1013.6
20260504022457 45 326 0.0 0.0 0.00 0.00 0.00 74 1013.6
20260504021955 45 326 0.0 0.0 0.00 0.00 0.00 71 1013.7
20260504020955 46 326 0.0 0.0 0.00 0.00 0.00 71 1013.7
20260504020454 46 326 0.0 0.0 0.00 0.00 0.00 72 1013.7
20260504015957 46 326 0.0 0.0 0.00 0.00 0.00 71 1013.7
20260504015453 47 326 0.0 0.0 0.00 0.00 0.00 68 1013.7
20260504014952 47 326 0.0 0.0 0.00 0.00 0.00 67 1013.7
20260504014454 47 326 0.0 0.0 0.00 0.00 0.00 65 1013.7
20260504013952 47 271 0.0 0.0 0.00 0.00 0.00 64 1013.6
20260504013459 48 271 0.0 0.0 0.00 0.00 0.00 66 1013.6
20260504012951 48 271 0.0 0.0 0.00 0.00 0.00 63 1013.5
20260504012450 48 271 0.0 0.0 0.00 0.00 0.00 62 1013.4
20260504004933 52 271 0.0 0.0 0.00 0.00 0.00 55 1013.4
20260504004435 53 271 0.0 0.0 0.00 0.00 0.00 53 1013.4
20260504003933 53 269 0.0 0.0 0.00 0.00 0.00 51 1013.3
20260504003432 54 269 0.0 0.0 0.00 0.00 0.00 49 1013.3
20260504001929 55 269 0.0 0.0 0.00 0.00 0.00 45 1013.1
20260504001431 55 269 0.0 0.9 0.00 0.00 0.00 44 1013.2
20260504000930 56 264 0.0 2.6 0.00 0.00 0.00 44 1013.3
20260504000431 56 299 0.0 2.6 0.00 0.00 0.00 44 1013.2
20260503235429 56 250 0.0 1.7 0.00 0.00 0.00 43 1013.2
20260503234931 56 265 0.0 1.7 0.00 0.00 0.00 44 1013.2
20260503234429 56 250 0.0 6.1 0.00 0.00 0.00 44 1013.3
20260503233930 57 259 0.0 6.1 0.00 0.00 0.00 42 1013.2
20260503233430 57 254 0.0 3.5 0.00 0.00 0.00 42 1013.3
20260503232930 57 254 0.0 2.6 0.00 0.00 0.00 42 1013.3
20260503232429 57 271 0.0 6.1 0.00 0.00 0.00 42 1013.3
20260503231930 57 240 0.0 6.1 0.00 0.00 0.00 41 1013.4
20260503231429 57 293 0.9 5.2 0.00 0.00 0.00 41 1013.4
20260503230930 57 292 0.9 5.2 0.00 0.00 0.00 40 1013.3
20260503225429 58 234 0.0 2.6 0.00 0.00 0.00 40 1013.3
20260503224430 58 152 0.9 4.3 0.00 0.00 0.00 40 1013.5
20260503223930 58 228 0.0 5.2 0.00 0.00 0.00 41 1013.5
20260503223429 58 293 1.7 5.2 0.00 0.00 0.00 39 1013.4
20260503222929 58 257 1.7 5.2 0.00 0.00 0.00 40 1013.5
20260503221929 58 231 0.0 5.2 0.00 0.00 0.00 43 1013.5
20260503221429 58 238 1.7 5.2 0.00 0.00 0.00 40 1013.5
20260503220931 58 224 0.0 5.2 0.00 0.00 0.00 42 1013.5
20260503220429 58 172 0.0 6.1 0.00 0.00 0.00 40 1013.6
20260503215930 58 240 1.7 6.1 0.00 0.00 0.00 39 1013.7
20260503215430 59 300 0.0 2.6 0.00 0.00 0.00 40 1013.5
20260503214426 59 265 0.0 5.2 0.00 0.00 0.00 42 1013.4
20260503213928 58 245 0.0 5.2 0.00 0.00 0.00 42 1013.5
20260503212423 58 169 0.0 4.3 0.00 0.00 0.00 43 1013.4
20260503211923 58 300 1.7 4.3 0.00 0.00 0.00 41 1013.4
20260503211419 58 212 0.9 3.5 0.00 0.00 0.00 41 1013.5
20260503210920 58 228 0.9 3.5 0.00 0.00 0.00 41 1013.5
20260503210418 58 202 0.9 11.3 0.00 0.00 0.00 41 1013.5
20260503205917 58 238 3.5 11.3 0.00 0.00 0.00 40 1013.5
20260503205419 58 226 0.0 5.2 0.00 0.00 0.00 43 1013.6
20260503204917 58 231 0.0 7.8 0.00 0.00 0.00 42 1013.7
20260503204416 58 209 1.7 7.8 0.00 0.00 0.00 41 1013.8
20260503203917 58 275 0.9 3.5 0.00 0.00 0.00 41 1013.8
20260503203417 58 278 0.9 7.8 0.00 0.00 0.00 43 1013.9
20260503202919 58 275 2.6 7.8 0.00 0.00 0.00 39 1014.0
20260503202416 58 275 3.5 5.2 0.00 0.00 0.00 40 1014.0
20260503201917 59 285 0.9 7.8 0.00 0.00 0.00 42 1013.9
20260503201417 58 197 2.6 7.8 0.00 0.00 0.00 40 1014.0
20260503200417 59 282 3.5 6.1 0.00 0.00 0.00 38 1014.0
20260503195417 59 274 0.0 3.5 0.00 0.00 0.00 42 1014.3
20260503194917 59 269 0.9 3.5 0.00 0.00 0.00 40 1014.3
20260503194418 58 295 0.0 8.7 0.00 0.00 0.00 45 1014.3
20260503192916 58 244 0.0 6.1 0.00 0.00 0.00 42 1014.5
20260503191418 58 219 0.9 6.1 0.00 0.00 0.00 43 1014.7
20260503190917 58 320 1.7 9.6 0.00 0.00 0.00 40 1014.9
20260503185917 58 281 5.2 9.6 0.00 0.00 0.00 41 1015.1
20260503185416 57 268 2.6 7.8 0.00 0.00 0.00 42 1015.2
20260503184917 57 293 0.9 6.1 0.00 0.00 0.00 43 1015.1
20260503184417 57 130 1.7 5.2 0.00 0.00 0.00 41 1015.3
20260503183912 58 292 0.9 8.7 0.00 0.00 0.00 42 1015.4
20260503183413 58 262 2.6 8.7 0.00 0.00 0.00 41 1015.5
20260503182410 59 281 0.0 4.3 0.00 0.00 0.00 41 1015.5
20260503181910 59 295 0.9 4.3 0.00 0.00 0.00 43 1015.6
20260503180909 58 269 2.6 6.1 0.00 0.00 0.00 41 1015.5
20260503180409 58 278 1.7 8.7 0.00 0.00 0.00 41 1015.6
20260503175906 58 266 2.6 8.7 0.00 0.00 0.00 40 1015.8
20260503175406 58 276 1.7 6.1 0.00 0.00 0.00 39 1015.7
20260503174907 58 266 0.9 6.1 0.00 0.00 0.00 42 1015.8
20260503174404 58 171 0.0 5.2 0.00 0.00 0.00 43 1015.9
20260503173903 59 237 1.7 5.2 0.00 0.00 0.00 39 1015.9
20260503173405 58 265 0.9 4.3 0.00 0.00 0.00 42 1015.9
20260503172402 58 258 1.7 4.3 0.00 0.00 0.00 38 1016.0
20260503171901 58 254 0.9 4.3 0.00 0.00 0.00 42 1016.0
20260503170901 57 269 0.9 6.1 0.00 0.00 0.00 40 1016.1
20260503170401 57 265 1.7 6.1 0.00 0.00 0.00 39 1016.3
20260503150853 54 250 0.9 4.3 0.00 0.00 0.00 47 1017.1
20260503150350 53 257 0.0 4.3 0.00 0.00 0.00 51 1017.0
20260503131329 46 261 0.9 3.5 0.00 0.00 0.00 65 1017.5
20260503130829 46 276 0.9 6.1 0.00 0.00 0.00 65 1017.6
20260503130329 46 298 1.7 6.1 0.00 0.00 0.00 66 1017.6
20260503110820 30 268 0.0 0.0 0.00 0.00 0.00 96 1016.9
20260503110318 30 268 0.0 0.0 0.00 0.00 0.00 96 1016.8
20260503090316 31 266 0.0 0.0 0.00 0.00 0.00 95 1016.1
20260503081313 33 266 0.0 0.0 0.00 0.00 0.00 95 1016.0
20260503080807 33 266 0.0 0.0 0.00 0.00 0.00 95 1016.0
20260503072807 34 266 0.0 0.0 0.00 0.00 0.00 96 1015.9
20260503072305 34 268 0.0 0.0 0.00 0.00 0.00 96 1015.9
20260503071803 33 268 0.0 0.0 0.00 0.00 0.00 95 1015.8
20260503071300 33 268 0.0 0.0 0.00 0.00 0.00 95 1015.8
20260503070801 33 266 0.0 0.0 0.00 0.00 0.00 95 1015.8
20260503070301 33 268 0.0 0.0 0.00 0.00 0.00 95 1015.8
20260503060254 32 268 0.0 0.0 0.00 0.00 0.00 95 1015.8
20260503054752 32 266 0.0 0.0 0.00 0.00 0.00 95 1015.9
20260503054253 32 266 0.0 0.0 0.00 0.00 0.00 94 1015.9
20260503053249 32 266 0.0 0.0 0.00 0.00 0.00 94 1015.9
20260503052747 32 268 0.0 0.0 0.00 0.00 0.00 94 1015.9
20260503051747 32 266 0.0 0.0 0.00 0.00 0.00 93 1016.0
20260503051249 32 268 0.0 0.0 0.00 0.00 0.00 93 1016.0
20260503050747 32 266 0.0 0.0 0.00 0.00 0.00 93 1016.1
20260503050246 32 266 0.0 0.0 0.00 0.00 0.00 93 1016.1